[ hide orbit diagram ]
For accurate long-term ephemerides, please instead use our Horizons system.This orbit viewer was implemented using two-body methods, and hence should not be used for determining accurate long-term trajectories (over several years or decades) or planetary encounter circumstances.
Orbital Elements at Epoch 2459000.5 (2020-May-31.0) TDB
Reference: JPL 20 (heliocentric ecliptic J2000)
Element | Value | Uncertainty (1-sigma) | Units |
e | .1473364552684265 | 6.3284e-08 | |
a | 3.219926934177879 | 3.6671e-08 | au |
q | 2.745514313472778 | 1.9999e-07 | au |
i | 5.217387250887326 | 7.5727e-06 | deg |
node | 18.40436870204227 | 5.464e-05 | deg |
peri | 315.1853473667568 | 5.8975e-05 | deg |
M | 206.8648859588683 | 2.5633e-05 | deg |
tp | 2459898.217595901327 (2022-Nov-14.71759590) | 0.00016025 | TDB |
period | 2110.412994094044 5.78 | 3.6052e-05 9.87e-08 | d yr |
n | .1705827252805276 | 2.9141e-09 | deg/d |
Q | 3.69433955488298 | 4.2074e-08 | au |
|
| | Orbit Determination Parameters
Additional Information
|
[ hide covariance matrix ]
Orbital Elements at Epoch 2457127.5 (2015-Apr-15.0) TDB
Reference: JPL 20 (heliocentric ecliptic J2000)
Element | Value | Uncertainty (1-sigma) | Units |
e | .1458640867438949 | 6.3342e-08 | |
q | 2.750487257857636 | 1.999e-07 | au |
tp | 2457787.779385938396 (2017-Feb-03.27938594) | 0.00013951 | TDB |
node | 18.44090653591914 | 5.4631e-05 | deg |
peri | 315.3587899956977 | 5.904e-05 | deg |
i | 5.217385135106464 | 7.5718e-06 | deg |
|
| | Orbit Determination Parameters
Additional Information
|
Orbit Covariance (6×6)
|
|
e |
q |
tp |
node |
peri |
i |
e |
4.012261876480706E-15 |
-1.251357910221201E-14 |
4.196876756814071E-12 |
5.859939657488229E-15 |
6.077399791332749E-13 |
8.645933804598315E-16 |
q |
-1.251357910221201E-14 |
3.995806579662245E-14 |
-1.122247068296857E-11 |
-2.127605200443534E-14 |
-1.637199931616364E-12 |
1.032067376849602E-15 |
tp |
4.196876756814071E-12 |
-1.122247068296857E-11 |
1.94628453756705E-8 |
1.150592413883001E-11 |
3.130437286021922E-9 |
2.584222015255098E-12 |
node |
5.859939657488229E-15 |
-2.127605200443534E-14 |
1.150592413883001E-11 |
2.984522216530833E-9 |
-2.969860841084895E-9 |
-6.233454841504168E-11 |
peri |
6.077399791332749E-13 |
-1.637199931616364E-12 |
3.130437286021922E-9 |
-2.969860841084895E-9 |
3.485684212652559E-9 |
6.244352775060039E-11 |
i |
8.645933804598315E-16 |
1.032067376849602E-15 |
2.584222015255098E-12 |
-6.233454841504168E-11 |
6.244352775060039E-11 |
5.733172890761524E-11 |
|
Physical Parameter Table
Parameter |
Symbol |
Value |
Units |
Sigma |
Reference |
Notes |
absolute magnitude |
H |
14.97 |
|
n/a |
E2020-QN2 |
|
|
212314 (2005 QU42) Discovered 2005-Aug-26 by LONEOS at Anderson Mesa |
Reference: 20090409/Numbers.arc | Last Updated: 2009-04-10 |
|
[ show close-approach data ]
|